Time,TemperatureF,DewpointF,PressureIn,WindDirection,WindDirectionDegrees,WindSpeedMPH,WindSpeedGustMPH,Humidity,HourlyPrecipIn,Conditions,Clouds,dailyrainin,SoftwareType,DateUTC
2013-01-03 00:11:00,38.8,33.5,30.03,WSW,247,0.0,-999.0,81,-99.99,,,0.00,Acu-Link.com,2013-01-03 08:11:00,
2013-01-03 00:26:00,38.8,33.5,30.03,SW,225,1.7,-999.0,81,-99.99,,,0.00,Acu-Link.com,2013-01-03 08:26:00,
2013-01-03 00:41:00,39.4,33.1,30.03,WSW,247,2.2,-999.0,78,-99.99,,,0.00,Acu-Link.com,2013-01-03 08:41:00,
2013-01-03 00:57:00,39.6,33.3,30.03,West,270,0.0,-999.0,78,-99.99,,,0.00,Acu-Link.com,2013-01-03 08:57:00,
2013-01-03 01:12:00,39.6,33.3,30.03,WSW,247,0.0,-999.0,78,-99.99,,,0.00,Acu-Link.com,2013-01-03 09:12:00,
2013-01-03 01:27:00,39.6,33.0,30.04,West,270,0.0,-999.0,77,-99.99,,,0.00,Acu-Link.com,2013-01-03 09:27:00,
2013-01-03 01:43:00,38.3,33.3,30.05,WSW,247,0.0,-999.0,82,-99.99,,,0.00,Acu-Link.com,2013-01-03 09:43:00,
2013-01-03 01:58:00,38.5,33.5,30.05,WSW,247,0.0,-999.0,82,-99.99,,,0.00,Acu-Link.com,2013-01-03 09:58:00,
2013-01-03 02:13:00,38.7,33.7,30.06,WSW,247,0.0,-999.0,82,-99.99,,,0.00,Acu-Link.com,2013-01-03 10:13:00,
2013-01-03 02:29:00,37.4,33.3,30.05,WSW,247,0.0,-999.0,85,-99.99,,,0.00,Acu-Link.com,2013-01-03 10:29:00,
2013-01-03 02:44:00,37.9,34.1,30.04,SSW,202,0.0,-999.0,86,-99.99,,,0.00,Acu-Link.com,2013-01-03 10:44:00,
2013-01-03 02:59:00,37.8,34.0,30.05,SSW,202,2.2,-999.0,86,-99.99,,,0.00,Acu-Link.com,2013-01-03 10:59:00,
2013-01-03 03:14:00,38.8,34.4,30.04,SSW,202,1.1,-999.0,84,-99.99,,,0.00,Acu-Link.com,2013-01-03 11:14:00,
2013-01-03 03:29:00,38.5,34.1,30.05,SSW,202,0.0,-999.0,84,-99.99,,,0.00,Acu-Link.com,2013-01-03 11:29:00,
2013-01-03 03:45:00,37.9,33.5,30.04,WSW,247,0.0,-999.0,84,-99.99,,,0.00,Acu-Link.com,2013-01-03 11:45:00,
2013-01-03 04:00:00,37.9,34.1,30.04,WSW,247,0.0,-999.0,86,-99.99,,,0.00,Acu-Link.com,2013-01-03 12:00:00,
2013-01-03 04:15:00,37.8,34.0,30.03,WSW,247,0.0,-999.0,86,-99.99,,,0.00,Acu-Link.com,2013-01-03 12:15:00,
2013-01-03 04:30:00,38.3,34.2,30.04,WSW,247,0.0,-999.0,85,-99.99,,,0.00,Acu-Link.com,2013-01-03 12:30:00,
2013-01-03 04:45:00,37.9,33.8,30.04,WSW,247,0.0,-999.0,85,-99.99,,,0.00,Acu-Link.com,2013-01-03 12:45:00,
2013-01-03 05:01:00,37.4,33.3,30.04,WSW,247,0.0,-999.0,85,-99.99,,,0.00,Acu-Link.com,2013-01-03 13:01:00,
2013-01-03 05:16:00,36.7,32.9,30.04,WSW,247,0.0,-999.0,86,-99.99,,,0.00,Acu-Link.com,2013-01-03 13:16:00,
2013-01-03 05:31:00,36.0,32.2,30.05,WSW,247,0.0,-999.0,86,-99.99,,,0.00,Acu-Link.com,2013-01-03 13:31:00,
2013-01-03 05:47:00,35.6,33.0,30.06,WSW,247,0.0,-999.0,90,-99.99,,,0.00,Acu-Link.com,2013-01-03 13:47:00,
2013-01-03 06:02:00,35.8,33.4,30.05,WSW,247,0.0,-999.0,91,-99.99,,,0.00,Acu-Link.com,2013-01-03 14:02:00,
2013-01-03 06:18:00,35.2,32.3,30.05,WSW,247,0.0,-999.0,89,-99.99,,,0.00,Acu-Link.com,2013-01-03 14:18:00,
2013-01-03 06:33:00,35.8,34.2,30.04,WSW,247,0.0,-999.0,94,-99.99,,,0.00,Acu-Link.com,2013-01-03 14:33:00,
2013-01-03 06:48:00,36.7,34.0,30.04,WSW,247,0.0,-999.0,90,-99.99,,,0.00,Acu-Link.com,2013-01-03 14:48:00,
2013-01-03 07:03:00,36.0,33.1,30.04,WSW,247,0.0,-999.0,89,-99.99,,,0.00,Acu-Link.com,2013-01-03 15:03:00,
2013-01-03 07:19:00,35.2,32.6,30.02,WSW,247,0.0,-999.0,90,-99.99,,,0.00,Acu-Link.com,2013-01-03 15:19:00,
2013-01-03 07:34:00,35.2,33.1,30.03,WSW,247,0.0,-999.0,92,-99.99,,,0.00,Acu-Link.com,2013-01-03 15:34:00,
2013-01-03 07:49:00,37.2,34.3,30.05,WSW,247,0.0,-999.0,89,-99.99,,,0.00,Acu-Link.com,2013-01-03 15:49:00,
2013-01-03 08:05:00,38.3,34.5,30.05,WSW,247,0.0,-999.0,86,-99.99,,,0.00,Acu-Link.com,2013-01-03 16:05:00,
2013-01-03 08:20:00,39.6,34.6,30.06,SW,225,0.0,-999.0,82,-99.99,,,0.00,Acu-Link.com,2013-01-03 16:20:00,
2013-01-03 08:35:00,40.8,35.1,30.04,SW,225,0.0,-999.0,80,-99.99,,,0.00,Acu-Link.com,2013-01-03 16:35:00,
2013-01-03 08:50:00,42.3,35.6,30.06,SW,225,0.0,-999.0,77,-99.99,,,0.00,Acu-Link.com,2013-01-03 16:50:00,
2013-01-03 09:05:00,45.0,35.8,30.07,SE,135,0.0,-999.0,70,-99.99,,,0.00,Acu-Link.com,2013-01-03 17:05:00,
2013-01-03 09:21:00,43.5,36.4,30.10,ESE,112,0.0,-999.0,76,-99.99,,,0.00,Acu-Link.com,2013-01-03 17:21:00,
2013-01-03 09:36:00,46.9,36.1,30.10,NW,315,2.7,-999.0,66,-99.99,,,0.00,Acu-Link.com,2013-01-03 17:36:00,
2013-01-03 09:51:00,47.8,35.8,30.10,North,0,2.2,-999.0,63,-99.99,,,0.00,Acu-Link.com,2013-01-03 17:51:00,
2013-01-03 10:06:00,48.9,36.9,30.10,SSE,157,1.7,-999.0,63,-99.99,,,0.00,Acu-Link.com,2013-01-03 18:06:00,
2013-01-03 10:21:00,47.1,38.9,30.11,North,0,3.2,-999.0,73,-99.99,,,0.00,Acu-Link.com,2013-01-03 18:21:00,
2013-01-03 10:37:00,48.6,39.3,30.12,West,270,1.7,-999.0,70,-99.99,,,0.00,Acu-Link.com,2013-01-03 18:37:00,
2013-01-03 10:52:00,50.0,37.9,30.11,East,90,2.2,-999.0,63,-99.99,,,0.00,Acu-Link.com,2013-01-03 18:52:00,
2013-01-03 11:07:00,49.6,36.7,30.11,ESE,112,2.2,-999.0,61,-99.99,,,0.00,Acu-Link.com,2013-01-03 19:07:00,
2013-01-03 11:53:00,52.5,39.0,30.09,ESE,112,3.7,-999.0,60,-99.99,,,0.00,Acu-Link.com,2013-01-03 19:53:00,
2013-01-03 12:08:00,53.1,39.2,30.09,NE,45,1.7,-999.0,59,-99.99,,,0.00,Acu-Link.com,2013-01-03 20:08:00,
2013-01-03 12:23:00,53.4,39.0,30.08,SSE,157,2.7,-999.0,58,-99.99,,,0.00,Acu-Link.com,2013-01-03 20:23:00,
2013-01-03 12:38:00,55.4,40.0,30.08,NNE,22,2.7,-999.0,56,-99.99,,,0.00,Acu-Link.com,2013-01-03 20:38:00,
2013-01-03 12:54:00,54.5,38.2,30.07,ESE,112,2.2,-999.0,54,-99.99,,,0.00,Acu-Link.com,2013-01-03 20:54:00,
2013-01-03 13:09:00,55.0,39.1,30.07,NNE,22,2.7,-999.0,55,-99.99,,,0.00,Acu-Link.com,2013-01-03 21:09:00,
2013-01-03 13:24:00,54.5,39.6,30.07,ENE,67,1.7,-999.0,57,-99.99,,,0.00,Acu-Link.com,2013-01-03 21:24:00,
2013-01-03 13:39:00,54.7,39.3,30.06,NE,45,2.7,-999.0,56,-99.99,,,0.00,Acu-Link.com,2013-01-03 21:39:00,
2013-01-03 13:55:00,56.1,40.2,30.06,East,90,3.2,-999.0,55,-99.99,,,0.00,Acu-Link.com,2013-01-03 21:55:00,
2013-01-03 14:10:00,55.4,39.5,30.07,ESE,112,2.7,-999.0,55,-99.99,,,0.00,Acu-Link.com,2013-01-03 22:10:00,
2013-01-03 14:25:00,56.1,40.2,30.07,NNE,22,2.7,-999.0,55,-99.99,,,0.00,Acu-Link.com,2013-01-03 22:25:00,
2013-01-03 14:40:00,55.6,39.7,30.08,ESE,112,1.7,-999.0,55,-99.99,,,0.00,Acu-Link.com,2013-01-03 22:40:00,
2013-01-03 14:56:00,56.3,39.9,30.07,NNE,22,2.2,-999.0,54,-99.99,,,0.00,Acu-Link.com,2013-01-03 22:56:00,
2013-01-03 15:11:00,55.9,39.0,30.06,North,0,1.7,-999.0,53,-99.99,,,0.00,Acu-Link.com,2013-01-03 23:11:00,
2013-01-03 15:26:00,55.2,38.8,30.07,ESE,112,0.0,-999.0,54,-99.99,,,0.00,Acu-Link.com,2013-01-03 23:26:00,
2013-01-03 15:41:00,55.0,39.1,30.07,NNW,337,0.0,-999.0,55,-99.99,,,0.00,Acu-Link.com,2013-01-03 23:41:00,
2013-01-03 15:56:00,54.5,39.6,30.07,ENE,67,0.0,-999.0,57,-99.99,,,0.00,Acu-Link.com,2013-01-03 23:56:00,
2013-01-03 16:12:00,55.6,41.9,30.08,ENE,67,1.1,-999.0,60,-99.99,,,0.00,Acu-Link.com,2013-01-04 00:12:00,
2013-01-03 16:27:00,52.9,41.9,30.09,North,0,0.0,-999.0,66,-99.99,,,0.00,Acu-Link.com,2013-01-04 00:27:00,
2013-01-03 16:42:00,50.9,41.1,30.08,WSW,247,0.0,-999.0,69,-99.99,,,0.00,Acu-Link.com,2013-01-04 00:42:00,
2013-01-03 16:57:00,48.7,40.4,30.08,WSW,247,0.0,-999.0,73,-99.99,,,0.00,Acu-Link.com,2013-01-04 00:57:00,
2013-01-03 17:12:00,47.5,39.3,30.09,SW,225,0.0,-999.0,73,-99.99,,,0.00,Acu-Link.com,2013-01-04 01:12:00,
2013-01-03 17:28:00,46.8,39.0,30.08,SW,225,0.0,-999.0,74,-99.99,,,0.00,Acu-Link.com,2013-01-04 01:28:00,
2013-01-03 17:43:00,46.4,38.6,30.08,SW,225,2.2,-999.0,74,-99.99,,,0.00,Acu-Link.com,2013-01-04 01:43:00,
2013-01-03 17:58:00,46.4,38.6,30.10,SSW,202,2.2,-999.0,74,-99.99,,,0.00,Acu-Link.com,2013-01-04 01:58:00,
2013-01-03 18:13:00,46.6,39.1,30.10,WSW,247,2.2,-999.0,75,-99.99,,,0.00,Acu-Link.com,2013-01-04 02:13:00,
2013-01-03 18:29:00,46.0,38.9,30.10,WSW,247,0.0,-999.0,76,-99.99,,,0.00,Acu-Link.com,2013-01-04 02:29:00,
2013-01-03 18:44:00,45.5,38.4,30.12,WSW,247,0.0,-999.0,76,-99.99,,,0.00,Acu-Link.com,2013-01-04 02:44:00,
2013-01-03 18:59:00,45.5,38.7,30.11,WSW,247,1.7,-999.0,77,-99.99,,,0.00,Acu-Link.com,2013-01-04 02:59:00,
2013-01-03 19:14:00,45.1,38.3,30.10,WSW,247,1.7,-999.0,77,-99.99,,,0.00,Acu-Link.com,2013-01-04 03:14:00,
2013-01-03 19:29:00,44.6,37.8,30.10,WSW,247,0.0,-999.0,77,-99.99,,,0.00,Acu-Link.com,2013-01-04 03:29:00,
2013-01-03 19:45:00,43.5,37.1,30.12,West,270,0.0,-999.0,78,-99.99,,,0.00,Acu-Link.com,2013-01-04 03:45:00,
2013-01-03 20:00:00,42.8,37.4,30.11,West,270,0.0,-999.0,81,-99.99,,,0.00,Acu-Link.com,2013-01-04 04:00:00,
2013-01-03 20:15:00,42.3,37.5,30.11,WSW,247,0.0,-999.0,83,-99.99,,,0.00,Acu-Link.com,2013-01-04 04:15:00,
2013-01-03 20:30:00,41.5,36.7,30.13,WSW,247,0.0,-999.0,83,-99.99,,,0.00,Acu-Link.com,2013-01-04 04:30:00,
2013-01-03 20:45:00,41.2,37.0,30.13,WSW,247,0.0,-999.0,85,-99.99,,,0.00,Acu-Link.com,2013-01-04 04:45:00,
2013-01-03 21:16:00,41.7,36.6,30.10,WSW,247,0.0,-999.0,82,-99.99,,,0.00,Acu-Link.com,2013-01-04 05:16:00,
2013-01-03 21:31:00,40.8,36.0,30.10,WSW,247,0.0,-999.0,83,-99.99,,,0.00,Acu-Link.com,2013-01-04 05:31:00,
2013-01-03 21:46:00,40.1,36.3,30.12,WSW,247,0.0,-999.0,86,-99.99,,,0.00,Acu-Link.com,2013-01-04 05:46:00,
2013-01-03 22:01:00,40.6,36.7,30.12,WSW,247,0.0,-999.0,86,-99.99,,,0.00,Acu-Link.com,2013-01-04 06:01:00,
2013-01-03 22:17:00,41.9,37.4,30.14,WSW,247,1.7,-999.0,84,-99.99,,,0.00,Acu-Link.com,2013-01-04 06:17:00,
2013-01-03 22:32:00,41.9,37.4,30.13,WSW,247,0.0,-999.0,84,-99.99,,,0.00,Acu-Link.com,2013-01-04 06:32:00,
2013-01-03 22:47:00,42.1,37.9,30.12,SSW,202,1.1,-999.0,85,-99.99,,,0.00,Acu-Link.com,2013-01-04 06:47:00,
2013-01-03 23:02:00,42.6,38.1,30.11,SW,225,1.1,-999.0,84,-99.99,,,0.00,Acu-Link.com,2013-01-04 07:02:00,
2013-01-03 23:17:00,41.9,37.7,30.12,ESE,112,1.1,-999.0,85,-99.99,,,0.00,Acu-Link.com,2013-01-04 07:17:00,
2013-01-03 23:33:00,42.4,38.2,30.13,SSE,157,0.0,-999.0,85,-99.99,,,0.00,Acu-Link.com,2013-01-04 07:33:00,
2013-01-03 23:48:00,42.4,37.9,30.13,South,180,0.0,-999.0,84,-99.99,,,0.00,Acu-Link.com,2013-01-04 07:48:00,